Zurück zum Katalog

STARLINK-36056

AktivKommunikationVLEO
NORAD 67206·PAYLOAD·🇺🇸 United States

Gestartet Dec 17, 2025 von Vandenberg Space Force Base

Loading…

Nächste Überflüge (nächste 24 Stunden)

TLE

AktuellSource: CelesTrak SupGP

Epoche: Sep 14, 2026, 23:00 UTC

1 67206C 25304Q   26257.95881944 -.00002369  00000+0 -19845-3 0  2573
2 67206  70.0011  57.3912 0003527 274.2033   8.8783 14.98343807    19

Verfolge STARLINK-36056 in Echtzeit mit AllMySat

Download on the App Store